Home   Weather   Tulare   Past weeks
Flag for USA

Past Weather in Tulare, California, USA — Yesterday and Last 2 Weeks

Now
73 °F

Sunny.


Feels Like: 77 °F
Forecast: 84 / 50 °F
Wind: 5 mph from Southeast

Location: Visalia Municipal

Current Time: Oct 23, 2019 at 12:23:01 pm

Latest Report: Oct 23, 2019 at 10:56 am


Visibility: 8 mi

Pressure: 30.04 "Hg

Humidity: 48%

Dew Point: 52 °F

Location of TulareLocation

Past Weather in Tulare — Graph

°F

Tulare Temperature Yesterday

Maximum temperature yesterday: 82 °F (at 2:56 pm)
Minimum temperature yesterday: 49 °F (at 6:56 am)
Average temperature yesterday: 65 °F

High & Low Weather Summary for the Past Weeks

 TemperatureHumidityPressure
High90 °F (Oct 8, 3:56 pm)97% (Oct 20, 4:56 am)30.24 "Hg (Oct 20, 4:56 am)
Low43 °F (Oct 10, 6:56 am)14% (Oct 12, 3:56 pm)29.79 "Hg (Oct 13, 4:56 pm)
Average62 °F56%30.00 "Hg
* Reported Oct 8 10:56 am — Oct 23 10:56 am, Tulare. Weather by CustomWeather, © 2019

Note: Actual official high and low records may vary slightly from our data, if they occured in-between our weather recording intervals... More about our weather records

Advertising

Tulare Weather History for the Previous 24 Hours

Scroll right to see more
 ConditionsComfort  
Time TempWeatherWind HumidityBarometerVisibility
10:56 am
Wed, Oct 23
73 °FSunny.5 mph48%30.04 "Hg8 mi
9:56 am67 °FSunny.3 mph57%30.06 "Hg9 mi
8:56 am62 °FSunny.7 mph65%30.06 "Hg10 mi
7:56 am54 °FSunny.3 mph83%30.05 "Hg10 mi
6:56 am52 °FClear.3 mph86%30.05 "Hg10 mi
5:56 am52 °FClear.No wind86%30.05 "Hg10 mi
4:56 am52 °FClear.No wind86%30.04 "Hg10 mi
3:56 am53 °FClear.3 mph86%30.05 "Hg10 mi
2:56 am56 °FClear.3 mph81%30.07 "Hg10 mi
1:56 am56 °FClear.No wind81%30.07 "Hg10 mi
12:56 am57 °FClear.5 mph78%30.07 "Hg10 mi
11:56 pm
Tue, Oct 22
57 °FClear.3 mph81%30.09 "Hg10 mi
10:56 pm58 °FClear.No wind78%30.09 "Hg10 mi
9:56 pm61 °FClear.No wind67%30.09 "Hg10 mi
8:56 pm62 °FClear.No wind65%30.08 "Hg10 mi
7:56 pm66 °FClear.No wind59%30.07 "Hg10 mi
6:56 pm71 °FClear.No wind47%30.07 "Hg10 mi
5:56 pm79 °FSunny.6 mph38%30.07 "Hg10 mi
4:56 pm81 °FSunny.5 mph35%30.08 "Hg10 mi
3:56 pm81 °FSunny.7 mph33%30.10 "Hg10 mi
2:56 pm82 °FSunny.3 mph34%30.12 "Hg10 mi
1:56 pm80 °FSunny.5 mph36%30.14 "Hg10 mi
12:56 pm78 °FSunny.6 mph37%30.18 "Hg10 mi
Weather by CustomWeather, © 2019

See weather overview